Home > Weather > Vista > Past weeks

Flag for U.S.A. Weather for the Past 2 Weeks in Vista, California, U.S.A.

Now
81 °F

Sunny.


Feels Like: 79 °F
Forecast: 54 / 82 °F
Wind: 5 mph from Southwest

Location: McClellan-Palomar Airport

Current Time: Feb 10, 2016 at 1:07:24 PM

Latest Report: Feb 10, 2016 at 11:53 AM


Visibility: 10 mi

Pressure: 30.11 "Hg

Humidity: 19%

Dew point: 35 °F

Location of VistaLocation

Historic Weather in Vista — Graph

°F

Vista Temperature Yesterday

Maximum temperature yesterday: 84 °F (at 10:53 AM)
Minimum temperature yesterday: 58 °F (at 3:53 AM)
Average temperature yesterday: 69 °F

High & Low Weather Summary for the Past Weeks

 TemperatureHumidityPressure
High84 °F (Feb 9, 10:53 AM)97% (Jan 30, 6:58 AM)30.34 "Hg (Jan 30, 6:58 AM)
Low39 °F (Feb 2, 5:53 AM)12% (Feb 7, 10:53 AM)29.69 "Hg (Jan 31, 2:53 PM)
Average59 °F46%30.12 "Hg
* Reported Jan 26 11:53 AM — Feb 10 11:53 AM, Vista, Weather by CustomWeather, © 2016

Note: Actual official high and low records may vary slightly from our data, if they occured in-between our weather recording intervals... More about our weather records

Advertising

Vista Weather History for the Previous 24 Hours

 ConditionsComfort  
Time TempWeatherWind HumidityBarometerVisibility
11:53 AM
Wed, Feb 10
81 °FSunny.5 mph19%30.11 "Hg10 mi
10:53 AM79 °FSunny.3 mph21%30.14 "Hg10 mi
9:53 AM76 °FSunny.No wind23%30.15 "Hg10 mi
8:53 AM71 °FSunny.No wind26%30.14 "Hg10 mi
7:53 AM65 °FSunny.3 mph28%30.12 "Hg10 mi
6:53 AM61 °FSunny.No wind29%30.11 "Hg10 mi
5:53 AM63 °FClear.7 mph26%30.10 "Hg10 mi
4:53 AM59 °FClear.No wind35%30.09 "Hg10 mi
3:53 AM56 °FClear.No wind42%30.09 "Hg10 mi
2:53 AM57 °FClear.5 mph42%30.10 "Hg10 mi
1:53 AM61 °FClear.No wind36%30.09 "Hg10 mi
12:53 AM62 °FClear.No wind37%30.09 "Hg10 mi
11:53 PM
Tue, Feb 9
65 °FClear.3 mph33%30.09 "Hg10 mi
10:53 PM62 °FClear.No wind39%30.10 "Hg10 mi
9:53 PM64 °FClear.5 mph49%30.10 "Hg10 mi
8:53 PM69 °FClear.No wind26%30.06 "Hg10 mi
7:53 PM69 °FClear.7 mph26%30.05 "Hg10 mi
6:53 PM69 °FClear.3 mph32%30.07 "Hg10 mi
5:53 PM75 °FClear.No wind21%30.07 "Hg10 mi
4:53 PM78 °FSunny.3 mph20%30.05 "Hg10 mi
3:53 PM80 °FSunny.7 mph19%30.04 "Hg10 mi
2:53 PM80 °FSunny.5 mph23%30.03 "Hg10 mi
1:53 PM76 °FSunny.5 mph24%30.05 "Hg10 mi
Weather by CustomWeather, © 2016

See weather overviewHow to use our weather pages